When you browse on this site, cookies collect data to enhance your experience and personalize the content and advertising you see.
Visit our Privacy Policy to learn more. By continuing to use the site, you agree to this use of cookies and data.
  • In Hungary
  • List of Countries
  • For 7 days
  • Water Temperature
  • Weather Map
  • News
  • Weather Widgets
  • user-avatar
    Login

    Hourly Weather Whitecourt

    Today, 22 November, Friday

    Time Temperature Precipitation Wind Pressure Humidity
    00:00 +1°C° 0 mm 1 mps 690 mmHg 77%
    01:00 +1°C° 0 mm 1 mps 689 mmHg 77%
    02:00 +1°C° 0.1 mm 2 mps 690 mmHg 79%
    03:00 +2°C° 0.1 mm 2 mps 691 mmHg 81%
    04:00 +3°C° 0.1 mm 2 mps 691 mmHg 84%
    05:00 +2°C° 0 mm 3 mps 691 mmHg 80%
    06:00 +2°C° 0 mm 3 mps 691 mmHg 77%
    07:00 0°C° 0 mm 4 mps 691 mmHg 74%
    08:00 +1°C° 0 mm 4 mps 692 mmHg 70%
    09:00 +3°C° 0 mm 4 mps 692 mmHg 66%
    10:00 +3°C° 0 mm 5 mps 692 mmHg 62%
    11:00 +5°C° 0 mm 4 mps 692 mmHg 63%
    12:00 +5°C° 0 mm 3 mps 692 mmHg 65%
    13:00 +5°C° 0 mm 3 mps 692 mmHg 66%
    14:00 +4°C° 0 mm 3 mps 692 mmHg 68%
    15:00 +3°C° 0 mm 3 mps 692 mmHg 70%
    16:00 +3°C° 0 mm 2 mps 691 mmHg 71%
    17:00 +2°C° 0 mm 3 mps 691 mmHg 69%
    18:00 +2°C° 0 mm 3 mps 691 mmHg 66%
    19:00 +1°C° 0 mm 4 mps 691 mmHg 64%
    20:00 +1°C° 0 mm 4 mps 691 mmHg 62%
    21:00 +3°C° 0 mm 4 mps 690 mmHg 61%
    22:00 +3°C° 0 mm 4 mps 690 mmHg 60%
    23:00 +1°C° 0 mm 4 mps 690 mmHg 61%

    Tomorrow, 23 November, Saturday

    Time Temperature Precipitation Wind Pressure Humidity
    00:00 +1°C° 0 mm 4 mps 690 mmHg 63%
    01:00 +1°C° 0 mm 3 mps 689 mmHg 64%
    02:00 +2°C° 0 mm 3 mps 689 mmHg 68%
    03:00 +2°C° 0 mm 3 mps 690 mmHg 71%
    04:00 +2°C° 0 mm 3 mps 690 mmHg 74%
    05:00 +2°C° 0 mm 3 mps 690 mmHg 78%
    06:00 +1°C° 0 mm 4 mps 690 mmHg 82%
    07:00 +3°C° 0 mm 4 mps 690 mmHg 85%
    08:00 +3°C° 0 mm 4 mps 691 mmHg 78%
    09:00 +3°C° 0 mm 5 mps 691 mmHg 71%
    10:00 +3°C° 0 mm 5 mps 691 mmHg 63%
    11:00 +3°C° 0 mm 5 mps 691 mmHg 66%
    12:00 +4°C° 0 mm 4 mps 690 mmHg 68%
    13:00 +4°C° 0 mm 4 mps 690 mmHg 70%
    14:00 +3°C° 0 mm 3 mps 689 mmHg 75%
    15:00 +2°C° 0 mm 3 mps 688 mmHg 81%
    16:00 +1°C° 0 mm 3 mps 688 mmHg 86%
    17:00 +1°C° 0 mm 2 mps 687 mmHg 88%
    18:00 +1°C° 0 mm 2 mps 687 mmHg 90%
    19:00 +1°C° 0 mm 2 mps 686 mmHg 93%
    20:00 +1°C° 0.3 mm 2 mps 686 mmHg 94%
    21:00 +1°C° 0.3 mm 2 mps 686 mmHg 96%
    22:00 +1°C° 0.3 mm 2 mps 685 mmHg 97%
    23:00 +1°C° 0.4 mm 2 mps 685 mmHg 97%

    Day after tomorrow, 24 November, Sunday

    Time Temperature Precipitation Wind Pressure Humidity
    00:00 +1°C° 0.4 mm 2 mps 686 mmHg 96%
    01:00 +1°C° 0.4 mm 2 mps 686 mmHg 95%
    02:00 0°C° 0.1 mm 3 mps 686 mmHg 93%
    03:00 0°C° 0.1 mm 3 mps 686 mmHg 92%
    04:00 0°C° 0.1 mm 3 mps 686 mmHg 90%
    05:00 -1°C° 0 mm 3 mps 687 mmHg 90%
    06:00 -1°C° 0 mm 3 mps 687 mmHg 90%
    07:00 -1°C° 0 mm 3 mps 687 mmHg 89%
    08:00 -2°C° 0 mm 4 mps 688 mmHg 82%
    09:00 -1°C° 0 mm 5 mps 689 mmHg 75%
    10:00 -1°C° 0 mm 6 mps 689 mmHg 68%
    11:00 -1°C° 0 mm 7 mps 689 mmHg 68%
    12:00 0°C° 0 mm 7 mps 690 mmHg 68%
    13:00 0°C° 0 mm 7 mps 690 mmHg 67%
    14:00 -1°C° 0 mm 6 mps 690 mmHg 71%
    15:00 -2°C° 0 mm 6 mps 691 mmHg 74%
    16:00 -1°C° 0 mm 5 mps 691 mmHg 78%
    17:00 -2°C° 0 mm 5 mps 692 mmHg 76%
    18:00 -2°C° 0 mm 5 mps 692 mmHg 75%
    19:00 -2°C° 0 mm 5 mps 692 mmHg 73%
    20:00 -3°C° 0 mm 4 mps 692 mmHg 74%
    21:00 -3°C° 0 mm 4 mps 692 mmHg 74%
    22:00 -3°C° 0 mm 4 mps 692 mmHg 75%
    23:00 -4°C° 0 mm 4 mps 692 mmHg 73%

    25 November, Monday

    Time Temperature Precipitation Wind Pressure Humidity
    00:00 -4°C° 0 mm 4 mps 692 mmHg 71%
    01:00 -4°C° 0 mm 4 mps 692 mmHg 70%
    02:00 -4°C° 0 mm 4 mps 692 mmHg 68%
    03:00 -4°C° 0 mm 4 mps 692 mmHg 66%
    04:00 -4°C° 0 mm 4 mps 692 mmHg 64%
    05:00 -4°C° 0 mm 4 mps 692 mmHg 66%
    06:00 -5°C° 0 mm 4 mps 692 mmHg 67%
    07:00 -5°C° 0 mm 4 mps 691 mmHg 68%
    08:00 -4°C° 0 mm 4 mps 691 mmHg 66%
    09:00 -5°C° 0 mm 5 mps 691 mmHg 64%
    10:00 -4°C° 0 mm 6 mps 691 mmHg 62%
    11:00 -4°C° 0 mm 6 mps 691 mmHg 60%
    12:00 -4°C° 0 mm 6 mps 691 mmHg 58%
    13:00 -4°C° 0 mm 6 mps 691 mmHg 56%
    14:00 -5°C° 0 mm 5 mps 691 mmHg 59%
    15:00 -4°C° 0 mm 4 mps 691 mmHg 63%
    16:00 -5°C° 0 mm 3 mps 692 mmHg 67%
    17:00 -6°C° 0 mm 3 mps 692 mmHg 68%
    18:00 -6°C° 0 mm 3 mps 692 mmHg 69%
    19:00 -6°C° 0 mm 3 mps 692 mmHg 70%
    20:00 -6°C° 0 mm 3 mps 692 mmHg 72%
    21:00 -7°C° 0 mm 3 mps 693 mmHg 74%
    22:00 -7°C° 0 mm 3 mps 693 mmHg 75%
    23:00 -7°C° 0 mm 3 mps 693 mmHg 78%

    26 November, Tuesday

    Time Temperature Precipitation Wind Pressure Humidity
    00:00 -8°C° 0 mm 3 mps 693 mmHg 80%
    01:00 -8°C° 0 mm 3 mps 693 mmHg 82%
    02:00 -8°C° 0 mm 3 mps 694 mmHg 82%
    03:00 -8°C° 0 mm 3 mps 694 mmHg 82%
    04:00 -8°C° 0 mm 2 mps 694 mmHg 82%
    05:00 -8°C° 0 mm 2 mps 695 mmHg 81%
    06:00 -9°C° 0 mm 2 mps 695 mmHg 80%
    07:00 -9°C° 0 mm 2 mps 696 mmHg 79%
    08:00 -9°C° 0 mm 2 mps 696 mmHg 76%
    09:00 -10°C° 0 mm 3 mps 697 mmHg 73%
    10:00 -10°C° 0 mm 3 mps 697 mmHg 70%
    11:00 -10°C° 0 mm 3 mps 697 mmHg 70%
    12:00 -10°C° 0 mm 3 mps 698 mmHg 70%
    13:00 -10°C° 0 mm 3 mps 698 mmHg 70%
    14:00 -10°C° 0 mm 3 mps 699 mmHg 71%
    15:00 -12°C° 0 mm 3 mps 699 mmHg 73%
    16:00 -12°C° 0 mm 3 mps 700 mmHg 75%
    17:00 -13°C° 0 mm 3 mps 700 mmHg 76%
    18:00 -13°C° 0 mm 3 mps 701 mmHg 78%
    19:00 -12°C° 0 mm 2 mps 702 mmHg 79%
    20:00 -12°C° 0.1 mm 2 mps 702 mmHg 80%
    21:00 -12°C° 0.1 mm 2 mps 703 mmHg 82%
    22:00 -12°C° 0.1 mm 2 mps 703 mmHg 83%
    23:00 -12°C° 0 mm 2 mps 703 mmHg 82%

    27 November, Wednesday

    Time Temperature Precipitation Wind Pressure Humidity
    00:00 -13°C° 0 mm 2 mps 704 mmHg 81%
    01:00 -13°C° 0 mm 2 mps 704 mmHg 80%
    02:00 -13°C° 0 mm 2 mps 704 mmHg 80%
    03:00 -11°C° 0 mm 1 mps 704 mmHg 80%
    04:00 -11°C° 0 mm 1 mps 705 mmHg 80%
    05:00 -11°C° 0 mm 1 mps 705 mmHg 81%
    06:00 -11°C° 0 mm 1 mps 705 mmHg 82%
    07:00 -11°C° 0 mm 1 mps 705 mmHg 82%
    08:00 -11°C° 0 mm 1 mps 705 mmHg 80%
    09:00 -11°C° 0 mm 0 mps 705 mmHg 77%
    10:00 -10°C° 0 mm 0 mps 706 mmHg 74%
    11:00 -10°C° 0 mm 0 mps 705 mmHg 71%
    12:00 -10°C° 0 mm 1 mps 705 mmHg 69%
    13:00 -9°C° 0 mm 1 mps 704 mmHg 67%
    14:00 -10°C° 0 mm 1 mps 704 mmHg 71%
    15:00 -10°C° 0 mm 1 mps 704 mmHg 76%
    16:00 -12°C° 0 mm 2 mps 703 mmHg 80%
    17:00 -13°C° 0 mm 2 mps 703 mmHg 83%
    18:00 -13°C° 0 mm 2 mps 703 mmHg 86%
    19:00 -13°C° 0 mm 2 mps 703 mmHg 90%
    20:00 -13°C° 0 mm 2 mps 703 mmHg 90%
    21:00 -13°C° 0 mm 2 mps 702 mmHg 91%
    22:00 -14°C° 0 mm 2 mps 702 mmHg 92%
    23:00 -14°C° 0 mm 2 mps 701 mmHg 92%
    Show more